This is the latest recevied weather packets stored in our database for station/object IZ5MMH-1. If no packets are shown the sender has not sent any weather packets the latest 10 day(s).
| Time | Temp. | Humidity | Pressure | Rain* | Wind** | Luminosity | Snow |
|---|---|---|---|---|---|---|---|
| 1787516899 | 21.67° C | 51% | 1017.6 hPa | - | - | - | - |
| 1787516299 | 21.67° C | 56% | 1017.6 hPa | - | - | - | - |
| 1787515698 | 22.22° C | 50% | 1017.6 hPa | - | - | - | - |
| 1787515098 | 22.22° C | 49% | 1017.5 hPa | - | - | - | - |
| 1787514498 | 22.78° C | 48% | 1017.5 hPa | - | - | - | - |
| 1787513898 | 22.78° C | 49% | 1017.3 hPa | - | - | - | - |
| 1787513299 | 22.78° C | 48% | 1017.2 hPa | - | - | - | - |
| 1787512698 | 23.33° C | 47% | 1017.1 hPa | - | - | - | - |
| 1787512099 | 23.89° C | 46% | 1017.1 hPa | - | - | - | - |
| 1787511498 | 23.89° C | 46% | 1017 hPa | - | - | - | - |
| 1787510899 | 24.44° C | 46% | 1016.8 hPa | - | - | - | - |
| 1787510299 | 25° C | 44% | 1016.7 hPa | - | - | - | - |
| 1787509698 | 25° C | 43% | 1016.5 hPa | - | - | - | - |
| 1787509097 | 26.11° C | 46% | 1016.5 hPa | - | - | - | - |
| 1787508500 | 26.67° C | 41% | 1016.5 hPa | - | - | - | - |
| 1787507898 | 27.22° C | 40% | 1016.4 hPa | - | - | - | - |
| 1787507299 | 27.78° C | 37% | 1016.4 hPa | - | - | - | - |
| 1787506698 | 28.89° C | 36% | 1016.4 hPa | - | - | - | - |
| 1787506097 | 29.44° C | 36% | 1016.5 hPa | - | - | - | - |
| 1787505498 | 30° C | 35% | 1016.4 hPa | - | - | - | - |
| 1787504899 | 30.56° C | 33% | 1016.5 hPa | - | - | - | - |
| 1787504298 | 31.11° C | 33% | 1016.4 hPa | - | - | - | - |
| 1787503698 | 31.67° C | 32% | 1016.5 hPa | - | - | - | - |
| 1787503097 | 32.22° C | 31% | 1016.5 hPa | - | - | - | - |
| 1787502497 | 32.78° C | 30% | 1016.6 hPa | - | - | - | - |
* Rain since midnight (hover to see other rain measurements)
** Current wind speed in m/s (hover to see current wind gust speed)